Location: Moscow
(55.7500°N, 37.5830°E)
Time: 03:25:19
(UTC+03:00)

Kosmos-337 - Pass Details

Date: 08 July 2022
Orbit: 1467 x 1552 km, 74.0° (Epoch: 13 August)

Event Time Altitude Azimuth Distance (km) Brightness Sun altitude
Rises 23:36:10 0° 328° (NNW) 4,737 ? -10.9°
Reaches altitude 10° 23:39:12 10° 331° (NNW) 3,751 ? -11.0°
Maximum altitude 23:48:23 67° 55° (NE) 1,657 ? -11.2°
Drops below altitude 10° 23:57:25 10° 138° (SE) 3,698 ? -11.4°
Enters shadow 23:58:24 - 139° (SE) 4,018 ? -11.5°
